User: anonymous   Login
Location: Albany
(35.0000°S, 118.0000°E)
Time: 04:45:14
(UTC-04:00)
Language:

ADEOS Rocket - Orbit

View from above orbital plane
View from above orbital plane
View from above satellite
View from above satellite

Ground track
Ground track

The orbit data is extracted from the following two-line orbital elements,

1 24279U 96046C   16268.92480183 +.00000038 +00000-0 +95872-4 0  9993
2 24279 098.7136 240.1554 0299070 245.0496 167.1322 13.47057841988263
Epoch (UTC): 24 September 2016 22:11:42
Eccentricity: 0.0299070
inclination: 98.7136°
perigee height: 860 km
apogee height: 1306 km
right ascension of ascending node: 240.1554°
argument of perigee: 245.0496°
revolutions per day: 13.47057841
mean anomaly at epoch: 167.1322°
orbit number at epoch: 98826

The dashed part of the orbit path shows where the satellite is in the earth's shadow,  

DLR